EHI
0 0 1 3 2 1 0 0 0 0 0 0 0 0 0 0 0 0 0 0 0 0 0 0 0 0 0 0 0 0 0 0 0 0 0 0 0 0 0 0 0 0 0
1 1 1 1 1 0 0 0 0 0 0 0 0 0 0 0 0 0 0 0 0 0 0 0 0 0 0 0 0 0 0 0 0 0 0 0 0 0 0 0 0 0 0
3 4 3 1 0 0 0 0 0 0 0 0 0 0 0 0 0 0 0 0 0 0 0 0 0 0 0 0 0 0 0 0 0 0 0 0 0 0 0 0 0 0 0
5 7 6 3 1 0 0 0 0 0 0 0 0 0 0 0 0 0 0 0 0 0 0 0 0 0 0 0 0 0 0 0 0 0 0 0 0 0 0 0 0 0 0
8 10 10 7 3 2 1 0 0 0 0 0 0 0 0 0 0 0 0 0 0 0 0 0 0 0 0 0 0 0 0 0 0 0 0 0 0 0 0 0 0 0 0
11 12 14 11 7 5 2 0 0 0 0 0 0 0 0 0 0 0 0 0 0 0 0 0 0 0 0 0 0 0 0 0 0 0 0 0 0 0 0 0 0 0 0
10 12 14 14 11 8 3 0 1 1 0 0 0 0 0 0 0 0 0 0 0 0 0 0 0 0 0 0 0 0 0 0 0 0 0 0 0 0 0 0 0 0 0
7 9 12 15 14 10 5 2 1 1 0 0 0 0 0 0 0 0 0 0 0 0 0 0 0 0 0 0 0 0 0 0 0 0 0 0 0 0 0 0 0 0 0
5 6 10 12 12 10 6 3 1 0 0 0 0 0 0 0 0 0 0 0 0 0 0 0 0 0 0 0 0 0 0 0 0 0 0 0 0 0 0 0 0 0 0
2 3 6 8 9 8 5 3 2 2 1 0 0 0 0 0 0 0 0 0 0 0 0 0 0 0 0 0 0 0 0 0 0 0 0 0 0 0 0 0 0 0 0
3 4 6 7 8 7 5 3 3 4 2 1 0 0 0 0 0 0 0 0 0 0 0 0 0 0 0 0 0 0 0 0 0 0 0 0 0 0 0 0 0 0 0
3 5 6 5 6 6 4 2 2 2 2 1 0 0 0 0 0 0 0 0 0 0 0 0 0 0 0 0 0 0 0 0 0 0 0 0 0 0 0 0 0 0 0
1 2 2 3 3 3 2 1 0 0 0 1 1 0 0 0 0 0 0 0 0 0 0 0 0 0 0 0 0 0 0 0 0 0 0 0 0 0 0 0 0 0 0
0 0 0 1 1 2 2 1 0 0 0 0 0 0 0 0 0 0 0 0 0 0 0 0 0 0 0 0 0 0 0 0 0 0 0 0 0 0 0 0 0 0 0
0 0 0 0 0 1 2 2 1 0 0 0 0 0 0 0 0 0 0 0 0 0 0 0 0 0 0 0 0 0 0 0 0 0 0 0 0 0 0 0 0 0 0
0 0 0 0 0 0 1 1 1 0 0 0 0 0 0 0 0 0 0 0 0 0 0 0 0 0 0 0 0 0 0 0 0 0 0 0 0 0 0 0 0 0 0
0 0 0 0 0 0 0 0 0 0 0 0 0 0 0 0 0 0 0 0 0 0 0 0 0 0 0 0 0 0 0 0 0 0 0 0 0 0 0 0 0 0 0
0 0 0 0 0 0 0 0 0 0 0 0 0 0 0 0 0 0 0 0 0 0 0 0 0 0 0 0 0 0 0 0 0 0 0 0 0 0 0 0 0 0 0
0 0 0 0 0 0 0 0 0 0 0 0 0 0 0 0 0 0 0 0 0 0 0 0 0 0 0 0 0 0 0 0 0 0 0 0 0 0 0 0 0 0 0
0 0 0 0 0 0 0 0 0 0 0 0 0 0 0 0 0 0 0 0 0 0 0 0 0 0 0 0 0 0 0 0 0 0 0 0 0 0 0 0 0 0 0
0 0 0 0 0 0 0 0 0 0 0 0 0 0 0 0 0 0 0 0 0 0 0 0 0 0 0 0 0 0 0 0 0 0 0 0 0 0 0 0 0 0 0
0 0 0 0 0 0 0 0 0 0 0 0 0 0 0 0 0 0 0 0 0 0 0 0 0 0 0 0 0 0 0 0 0 0 0 0 0 0 0 0 0 0 0
0 0 0 0 0 0 0 0 0 0 0 0 0 0 0 0 0 0 0 0 0 0 0 0 0 0 0 0 0 0 0 0 0 0 0 0 0 0 0 0 0 0 0
0 0 0 0 0 0 0 0 0 0 0 0 0 0 0 0 0 0 0 0 0 0 0 0 0 0 0 0 0 0 0 0 0 0 0 0 0 0 0 0 0 0 0
0 0 0 0 0 0 0 0 0 0 0 0 0 0 0 0 0 0 0 0 0 0 0 0 0 0 0 0 0 0 0 0 0 0 0 0 0 0 0 0 0 0 0
0 0 0 0 0 0 0 0 0 0 0 0 0 0 0 0 0 0 0 0 0 0 0 0 0 0 0 0 0 0 0 0 0 0 0 0 0 0 0 0 0 0 0
Wind_Speed
4 4 3 4 6 7 7 5 7 9 8 7 8 8 7 6 6 7 6 10 9 7 6 7 7 6 5 4 5 5 5 6 6 6 6 7 7 7 7 6 6 5 5
4 3 4 4 4 4 6 6 7 5 3 2 3 4 4 5 6 9 8 8 10 9 7 7 7 7 6 5 5 5 5 6 6 6 6 6 6 6 6 5 5 4 3
4 5 4 4 3 3 4 5 6 4 3 3 2 2 2 4 5 8 10 7 6 8 9 8 7 6 7 7 6 5 5 6 6 6 6 6 6 6 6 5 4 3 2
5 5 4 4 4 3 2 3 2 2 2 3 2 2 2 3 2 4 7 8 8 7 8 9 8 6 6 7 7 6 6 6 7 6 6 6 6 6 5 5 4 3 2
6 4 4 4 4 2 2 3 2 2 2 2 3 3 3 4 4 4 5 6 8 9 7 9 10 8 7 7 7 8 7 7 7 7 7 6 6 6 5 4 4 3 3
5 4 4 5 4 2 2 2 2 2 1 2 3 3 3 3 4 4 4 3 6 9 10 9 7 7 9 8 7 7 8 8 8 8 7 7 6 5 5 4 3 3 3
6 5 4 4 4 3 3 3 2 2 2 1 1 1 1 2 4 4 4 3 4 6 9 10 8 6 5 9 8 8 7 8 9 8 8 7 6 6 5 4 3 3 2
6 6 6 5 5 4 4 4 3 2 2 2 1 1 1 2 2 2 3 4 4 4 6 8 8 9 8 6 7 10 7 7 8 8 8 7 7 6 5 4 3 3 2
5 6 7 6 6 6 6 6 5 5 4 3 3 3 3 4 2 2 3 3 3 2 3 3 5 8 10 8 8 9 9 8 8 8 8 8 7 6 5 4 3 3 2
5 5 6 7 7 6 7 8 7 6 7 5 4 3 3 3 3 2 2 1 2 3 3 3 3 4 7 9 9 13 13 10 9 9 9 9 8 7 6 5 4 3 3
4 3 4 5 6 6 7 8 7 8 7 7 6 4 4 2 2 3 2 1 0 0 0 1 1 2 4 7 8 12 14 12 10 9 9 9 9 8 7 5 4 4 4
3 3 3 3 4 5 6 7 7 8 8 8 7 6 5 4 4 4 3 3 2 1 0 0 1 1 2 5 9 16 16 13 11 9 8 9 9 8 7 6 5 5 5
3 3 2 1 2 3 4 5 5 6 7 7 7 6 5 5 4 4 4 3 3 2 1 1 1 0 1 3 5 16 15 14 12 10 9 8 8 7 6 6 6 5 5
4 4 4 3 2 2 1 2 3 4 4 5 7 6 5 5 4 4 4 4 3 2 2 2 0 0 1 3 7 11 9 13 13 11 10 9 8 7 6 5 4 4 4
4 5 4 4 4 4 3 2 1 1 1 2 3 4 4 4 4 4 4 4 5 5 5 3 1 0 1 3 8 5 6 11 12 12 10 10 9 8 7 5 4 3 2
5 5 5 4 4 4 4 3 3 2 2 1 1 2 2 3 3 3 4 3 4 4 4 3 3 1 1 3 6 3 3 11 12 11 11 10 9 8 7 6 5 4 3
6 6 6 6 5 5 4 4 3 3 3 2 2 1 0 1 2 2 3 3 3 3 3 2 2 2 3 3 3 2 3 5 5 9 10 9 8 8 7 6 5 4 3
8 7 7 8 8 8 6 4 3 3 3 3 3 2 1 1 2 2 3 4 3 3 4 4 2 2 2 3 3 2 2 4 4 8 9 8 8 7 6 6 5 4 4
8 8 8 9 9 9 9 8 5 3 3 2 2 2 2 2 2 2 3 3 3 3 3 4 3 2 2 2 3 2 3 3 6 8 9 10 10 10 9 8 7 7 6
8 9 9 9 9 9 10 10 8 4 3 3 3 3 2 2 2 3 3 4 4 4 4 4 3 2 2 2 3 3 3 3 5 7 10 11 15 15 14 12 11 10 9
9 8 8 8 8 7 9 10 9 6 4 2 3 3 3 5 5 4 4 4 4 3 3 3 3 3 2 3 3 3 5 6 6 6 7 7 7 7 8 11 12 13 13
7 7 7 7 7 8 14 15 11 7 4 3 2 3 4 5 6 7 8 7 5 4 4 3 3 4 4 3 4 5 6 6 4 4 6 7 6 7 6 6 11 15 15
5 6 6 6 5 8 16 17 17 7 4 3 2 2 3 4 5 4 6 7 6 5 3 3 4 3 3 4 5 6 6 5 6 6 7 7 6 7 6 8 14 15 15
4 4 4 5 5 9 16 17 18 6 3 5 4 4 4 4 4 5 5 5 6 5 3 3 3 3 2 3 5 6 8 9 8 5 5 5 4 5 6 6 12 14 13
4 3 3 4 5 7 14 16 16 5 3 5 5 6 5 5 7 8 6 6 6 5 7 9 8 7 8 8 9 9 9 10 7 4 3 5 5 5 5 4 7 12 11
4 3 3 3 4 5 11 15 14 5 4 3 3 5 8 6 6 7 5 5 5 3 4 5 5 6 7 8 10 8 8 9 7 4 3 5 6 4 4 2 3 3 5
Wind_Direction
223 246 248 206 197 193 196 201 212 225 218 209 195 204 185 187 154 135 141 156 154 162 173 178 174 171 167 158 152 150 151 146 144 144 142 146 146 145 142 139 135 132 127
209 221 254 255 235 211 188 194 217 239 208 236 229 193 173 171 149 139 149 160 162 165 171 178 180 180 178 176 168 162 160 158 155 156 155 155 156 155 154 153 153 154 153
212 206 221 245 253 247 219 207 220 223 184 201 238 240 188 169 164 153 153 160 164 172 173 173 175 181 184 184 181 175 166 165 165 165 165 165 166 168 170 173 178 182 190
222 202 202 224 234 241 253 229 234 222 184 185 190 216 212 159 173 158 160 163 163 168 175 176 172 177 185 188 186 184 177 172 171 172 172 172 175 179 182 190 199 210 229
240 217 204 210 230 228 232 244 215 216 201 196 204 205 200 171 185 189 190 178 160 158 162 174 173 174 184 189 190 189 186 180 176 177 176 176 180 184 188 197 211 224 235
242 240 217 213 210 215 239 264 242 217 206 208 225 213 193 187 184 185 200 182 161 161 159 164 168 181 185 183 185 188 189 189 183 180 178 176 177 181 185 192 203 215 225
226 231 226 210 203 201 208 225 247 247 246 257 244 290 284 214 194 185 183 183 191 168 160 166 174 166 175 183 180 182 185 187 185 183 179 176 172 173 175 179 185 195 200
224 228 218 210 196 193 201 208 208 209 251 252 189 198 274 302 275 207 178 183 203 175 172 179 173 165 167 164 182 178 178 180 179 178 176 172 167 167 168 171 175 178 168
230 224 221 212 201 194 199 200 199 197 209 227 223 181 179 210 248 279 218 187 195 183 180 203 185 169 163 164 162 172 167 167 172 171 169 166 163 165 165 165 164 164 162
255 231 223 214 208 201 198 201 199 203 199 208 221 219 208 178 170 233 263 225 205 193 190 194 200 181 161 152 164 167 165 166 172 174 171 168 166 167 164 162 160 158 161
276 259 237 221 212 207 204 202 198 202 207 205 202 200 215 228 201 173 215 249 255 226 252 225 213 177 152 147 154 164 164 166 171 175 174 173 172 171 172 174 177 174 173
300 297 265 239 225 216 209 205 206 204 210 211 204 199 187 182 193 185 189 197 209 231 258 277 244 184 144 143 160 162 164 167 172 177 178 177 178 178 179 180 182 185 184
329 333 322 278 243 228 219 207 206 212 213 210 208 206 202 201 179 179 184 185 195 206 194 275 247 152 134 119 139 162 167 168 173 178 180 180 181 181 183 186 187 190 192
347 354 4 15 26 18 287 210 212 218 215 216 219 212 207 207 195 186 180 170 175 200 207 220 261 213 122 124 149 162 169 171 173 178 182 184 183 181 181 186 188 191 193
356 8 15 26 34 37 39 50 76 207 201 218 229 219 211 205 199 193 185 173 167 183 207 205 193 192 125 113 151 174 165 180 178 179 183 185 186 185 182 181 174 163 159
4 12 14 25 38 43 44 45 54 45 63 79 230 227 210 200 194 186 183 183 178 169 184 187 185 165 131 138 158 179 166 174 180 180 182 184 186 186 184 183 179 167 158
10 26 21 25 34 40 45 48 49 53 62 59 43 40 220 170 177 175 174 174 176 163 163 159 159 154 152 148 144 164 141 151 169 176 175 175 176 177 179 179 176 164 148
13 23 28 29 31 29 23 26 34 50 60 63 54 45 36 117 161 157 160 165 165 159 152 151 149 154 162 151 146 147 143 151 138 155 154 153 151 149 144 136 130 125 117
17 20 32 34 31 25 15 8 11 30 56 69 77 76 60 79 130 146 152 155 153 149 132 139 147 148 143 143 133 137 128 111 106 118 110 103 104 102 100 101 101 100 97
27 21 30 33 29 26 16 3 354 8 38 72 79 80 78 89 106 124 132 140 142 144 141 142 143 146 146 149 137 137 118 98 101 101 92 92 90 85 83 86 88 88 87
29 23 28 30 27 24 13 4 349 359 14 55 89 93 88 96 112 115 121 126 130 134 141 146 149 147 153 154 160 146 125 107 96 106 105 97 90 81 73 72 79 84 85
36 29 22 24 32 22 4 7 4 344 355 29 71 95 104 95 99 104 111 112 120 134 148 149 156 158 168 167 147 137 135 132 117 111 102 87 81 78 67 68 80 86 87
43 39 19 15 29 20 7 4 357 340 358 21 47 87 104 105 101 97 97 98 89 85 111 148 152 161 160 163 149 148 149 134 117 125 108 93 84 82 70 68 81 86 88
29 42 22 12 17 22 11 5 352 350 24 27 37 55 89 97 96 104 100 87 70 52 68 103 112 114 119 144 149 142 126 110 104 108 107 103 98 89 80 68 78 85 87
10 26 24 15 22 21 14 9 1 344 31 49 45 45 65 84 92 100 97 93 86 73 71 88 98 103 98 101 119 120 124 126 121 112 98 105 122 112 98 89 82 87 88
357 3 23 27 34 26 20 16 8 0 12 36 58 70 62 70 79 90 97 94 87 82 87 93 92 94 90 96 115 129 136 134 129 126 139 121 149 137 117 117 137 122 93